| time (UTC) | temp F | wind direction | speed MPH | gust MPH | rain 1hr in | rain 24hr in | rain mn in | humidity % | barometer mb |
| 20260506194531 | 50 | 304 | 2.0 | 5.0 | 0.00 | 0.46 | 0.31 | 87 | 1010.4 |
| 20260506193102 | 51 | 360 | 2.0 | 5.0 | 0.00 | 0.46 | 0.31 | 88 | 1010.2 |
| 20260506191530 | 51 | 292 | 2.0 | 4.0 | 0.00 | 0.46 | 0.31 | 87 | 1010.2 |
| 20260506190100 | 51 | 55 | 1.0 | 2.0 | 0.00 | 0.46 | 0.31 | 87 | 1010.1 |
| 20260506184525 | 51 | 55 | 0.0 | 0.0 | 0.00 | 0.52 | 0.31 | 87 | 1010.1 |
| 20260506183106 | 51 | 55 | 0.0 | 0.0 | 0.00 | 0.52 | 0.31 | 86 | 1010.0 |
| 20260506181527 | 52 | 55 | 0.0 | 0.0 | 0.00 | 0.52 | 0.31 | 86 | 1009.7 |
| 20260506180055 | 52 | 55 | 0.0 | 1.0 | 0.00 | 0.52 | 0.31 | 86 | 1009.6 |
| 20260506174517 | 52 | 55 | 0.0 | 3.0 | 0.00 | 0.54 | 0.31 | 86 | 1009.5 |
| 20260506173050 | 53 | 72 | 1.0 | 5.0 | 0.00 | 0.54 | 0.31 | 86 | 1009.2 |
| 20260506171518 | 53 | 321 | 2.0 | 3.0 | 0.00 | 0.54 | 0.31 | 85 | 1009.0 |
| 20260506164507 | 53 | 287 | 1.0 | 4.0 | 0.00 | 0.55 | 0.31 | 84 | 1008.8 |
| 20260506163031 | 53 | 286 | 2.0 | 5.0 | 0.00 | 0.55 | 0.31 | 83 | 1008.9 |
| 20260506161555 | 53 | 288 | 2.0 | 8.0 | 0.00 | 0.55 | 0.31 | 82 | 1008.9 |
| 20260506160019 | 54 | 292 | 4.0 | 9.0 | 0.00 | 0.55 | 0.31 | 81 | 1008.9 |
| 20260506154549 | 54 | 271 | 3.0 | 8.0 | 0.00 | 0.55 | 0.31 | 82 | 1008.8 |
| 20260506153012 | 54 | 251 | 3.0 | 6.0 | 0.00 | 0.55 | 0.31 | 83 | 1008.7 |
| 20260506151542 | 54 | 288 | 4.0 | 6.0 | 0.00 | 0.55 | 0.31 | 83 | 1008.8 |
| 20260506150005 | 53 | 5 | 0.0 | 2.0 | 0.00 | 0.55 | 0.31 | 83 | 1008.7 |
| 20260506144540 | 52 | 9 | 0.0 | 2.0 | 0.00 | 0.55 | 0.31 | 84 | 1008.8 |
| 20260506143057 | 52 | 10 | 1.0 | 4.0 | 0.00 | 0.55 | 0.31 | 84 | 1008.8 |
| 20260506141529 | 52 | 28 | 3.0 | 6.0 | 0.00 | 0.55 | 0.31 | 83 | 1008.8 |
| 20260506140014 | 52 | 360 | 6.0 | 12.0 | 0.00 | 0.55 | 0.31 | 82 | 1008.8 |
| 20260506134556 | 52 | 15 | 4.0 | 9.0 | 0.00 | 0.55 | 0.31 | 83 | 1008.7 |
| 20260506133030 | 53 | 355 | 2.0 | 11.0 | 0.00 | 0.55 | 0.31 | 83 | 1008.8 |
| 20260506131512 | 53 | 83 | 6.0 | 10.0 | 0.00 | 0.55 | 0.31 | 82 | 1008.7 |
| 20260506130050 | 54 | 13 | 7.0 | 11.0 | 0.00 | 0.55 | 0.31 | 83 | 1008.6 |
| 20260506124523 | 54 | 12 | 6.0 | 15.0 | 0.00 | 0.55 | 0.31 | 84 | 1008.5 |
| 20260506123053 | 53 | 28 | 10.0 | 16.0 | 0.00 | 0.55 | 0.31 | 85 | 1008.4 |
| 20260506121527 | 53 | 360 | 7.0 | 12.0 | 0.00 | 0.55 | 0.31 | 87 | 1008.3 |
| 20260506120058 | 51 | 9 | 4.0 | 12.0 | 0.00 | 0.55 | 0.31 | 89 | 1008.2 |
| 20260506114520 | 51 | 355 | 6.0 | 13.0 | 0.00 | 0.55 | 0.31 | 89 | 1008.1 |
| 20260506113056 | 51 | 5 | 6.0 | 12.0 | 0.00 | 0.55 | 0.31 | 90 | 1008.0 |
| 20260506111512 | 51 | 344 | 4.0 | 11.0 | 0.00 | 0.55 | 0.31 | 91 | 1007.8 |
| 20260506110032 | 51 | 310 | 4.0 | 10.0 | 0.00 | 0.55 | 0.31 | 92 | 1007.8 |
| 20260506104559 | 50 | 338 | 7.0 | 11.0 | 0.00 | 0.55 | 0.31 | 92 | 1007.9 |
| 20260506103018 | 49 | 14 | 5.0 | 11.0 | 0.00 | 0.55 | 0.31 | 92 | 1007.9 |
| 20260506101540 | 49 | 348 | 6.0 | 9.0 | 0.00 | 0.55 | 0.31 | 92 | 1007.9 |
| 20260506100104 | 49 | 309 | 3.0 | 9.0 | 0.00 | 0.55 | 0.31 | 92 | 1007.8 |
| 20260506094524 | 49 | 9 | 3.0 | 10.0 | 0.01 | 0.55 | 0.31 | 92 | 1007.8 |
| 20260506093052 | 49 | 360 | 4.0 | 9.0 | 0.01 | 0.55 | 0.31 | 92 | 1007.6 |
| 20260506091534 | 48 | 347 | 2.0 | 6.0 | 0.01 | 0.55 | 0.31 | 92 | 1007.6 |
| 20260506090057 | 48 | 307 | 3.0 | 8.0 | 0.01 | 0.55 | 0.31 | 92 | 1007.5 |
| 20260506084510 | 48 | 339 | 2.0 | 9.0 | 0.00 | 0.54 | 0.31 | 92 | 1007.5 |
| 20260506083037 | 48 | 305 | 3.0 | 8.0 | 0.00 | 0.54 | 0.31 | 92 | 1007.3 |
| 20260506081504 | 48 | 296 | 3.0 | 6.0 | 0.00 | 0.54 | 0.31 | 92 | 1007.1 |
| 20260506073050 | 47 | 322 | 2.0 | 8.0 | 0.02 | 0.54 | 0.31 | 92 | 1006.9 |
| 20260506071511 | 47 | 317 | 4.0 | 10.0 | 0.03 | 0.54 | 0.31 | 92 | 1006.8 |
| 20260506061555 | 47 | 333 | 4.0 | 9.0 | 0.04 | 0.51 | 0.28 | 92 | 1006.3 |
| 20260506050111 | 47 | 304 | 4.0 | 10.0 | 0.05 | 0.46 | 0.22 | 92 | 1006.2 |
| 20260506044551 | 47 | 348 | 6.0 | 10.0 | 0.06 | 0.44 | 0.20 | 92 | 1006.3 |
| 20260506043028 | 47 | 5 | 5.0 | 10.0 | 0.05 | 0.43 | 0.20 | 92 | 1006.2 |
| 20260506041540 | 47 | 355 | 6.0 | 11.0 | 0.04 | 0.42 | 0.18 | 92 | 1006.2 |
| 20260506040004 | 47 | 328 | 4.0 | 8.0 | 0.03 | 0.40 | 0.17 | 92 | 1006.2 |
| 20260506034529 | 47 | 5 | 5.0 | 9.0 | 0.02 | 0.39 | 0.15 | 92 | 1006.2 |
| 20260506033057 | 48 | 338 | 3.0 | 8.0 | 0.02 | 0.39 | 0.15 | 92 | 1006.3 |
| 20260506031544 | 48 | 15 | 5.0 | 10.0 | 0.02 | 0.38 | 0.14 | 92 | 1006.3 |
| 20260506024540 | 48 | 323 | 4.0 | 10.0 | 0.02 | 0.36 | 0.13 | 92 | 1006.3 |
| 20260506023052 | 48 | 339 | 5.0 | 10.0 | 0.02 | 0.36 | 0.13 | 92 | 1006.3 |
| 20260506021521 | 48 | 312 | 5.0 | 10.0 | 0.02 | 0.36 | 0.13 | 92 | 1006.3 |
| 20260506020131 | 48 | 5 | 7.0 | 11.0 | 0.02 | 0.35 | 0.12 | 92 | 1006.3 |
| 20260506014522 | 49 | 15 | 3.0 | 8.0 | 0.02 | 0.35 | 0.11 | 92 | 1006.4 |
| 20260506013054 | 49 | 346 | 2.0 | 8.0 | 0.03 | 0.34 | 0.10 | 92 | 1006.5 |
| 20260506011506 | 49 | 38 | 3.0 | 9.0 | 0.04 | 0.34 | 0.10 | 92 | 1006.5 |
| 20260506010009 | 49 | 5 | 3.0 | 8.0 | 0.04 | 0.33 | 0.09 | 92 | 1006.5 |
| 20260506004536 | 49 | 337 | 5.0 | 9.0 | 0.03 | 0.32 | 0.09 | 92 | 1006.5 |
| 20260506003001 | 49 | 322 | 3.0 | 6.0 | 0.02 | 0.31 | 0.07 | 92 | 1006.6 |
| 20260506001527 | 49 | 355 | 3.0 | 6.0 | 0.03 | 0.30 | 0.06 | 92 | 1006.8 |
| 20260506000007 | 49 | 306 | 2.0 | 8.0 | 0.02 | 0.28 | 0.06 | 92 | 1006.9 |
| 20260505234551 | 49 | 330 | 2.0 | 8.0 | 0.03 | 0.28 | 0.06 | 92 | 1007.0 |
| 20260505233002 | 49 | 344 | 4.0 | 6.0 | 0.03 | 0.28 | 0.05 | 92 | 1006.9 |
| 20260505231530 | 49 | 5 | 3.0 | 6.0 | 0.02 | 0.27 | 0.03 | 91 | 1007.0 |
| 20260505230005 | 49 | 336 | 3.0 | 5.0 | 0.03 | 0.27 | 0.03 | 92 | 1007.1 |
| 20260505224538 | 49 | 27 | 3.0 | 5.0 | 0.02 | 0.26 | 0.02 | 92 | 1007.2 |
| 20260505223030 | 50 | 18 | 3.0 | 5.0 | 0.02 | 0.25 | 0.02 | 92 | 1007.2 |
| 20260505221513 | 50 | 30 | 2.0 | 8.0 | 0.02 | 0.24 | 0.01 | 92 | 1007.3 |
| 20260505220052 | 50 | 5 | 4.0 | 10.0 | 0.02 | 0.24 | 0.00 | 91 | 1007.3 |
| 20260505214601 | 50 | 342 | 3.0 | 9.0 | 0.02 | 0.24 | 0.23 | 91 | 1007.4 |
| 20260505213015 | 50 | 36 | 4.0 | 9.0 | 0.04 | 0.23 | 0.22 | 91 | 1007.5 |
| 20260505211608 | 50 | 9 | 4.0 | 9.0 | 0.06 | 0.23 | 0.22 | 91 | 1007.5 |
| 20260505210038 | 50 | 348 | 3.0 | 8.0 | 0.06 | 0.22 | 0.21 | 91 | 1007.6 |
| 20260505204524 | 50 | 23 | 5.0 | 9.0 | 0.06 | 0.21 | 0.20 | 91 | 1007.6 |
| 20260505203003 | 50 | 355 | 2.0 | 8.0 | 0.06 | 0.19 | 0.18 | 91 | 1007.6 |
| 20260505201533 | 50 | 26 | 4.0 | 10.0 | 0.06 | 0.17 | 0.17 | 91 | 1007.6 |
| 20260505200107 | 51 | 323 | 1.0 | 5.0 | 0.06 | 0.16 | 0.15 | 91 | 1007.6 |